Weather History for KMQI - August, 2013

Change the Weather History Date:

Saturday, August 3, 2013

  Actual Average Record
Temperature  
Mean Temperature 78 °F -  
Max Temperature 84 °F 82 °F 98 °F (1980)
Min Temperature 72 °F 73 °F 50 °F (1985)
Cooling Degree Days 14    
Growing Degree Days 28 (Base 50)    
Moisture  
Dew Point 74 °F    
Average Humidity 84    
Maximum Humidity 97    
Minimum Humidity 60    
Precipitation  
Precipitation 0.04 in - - ()
Sea Level Pressure  
Sea Level Pressure 29.98 in    
Wind  
Wind Speed 10 mph (WSW)    
Max Wind Speed 18 mph    
Max Gust Speed 21 mph    
Visibility 10 miles    
Events Rain    
Averages and records for this station are not official NWS values.
T = Trace of Precipitation, MM = Missing Value Source: NWS Daily Summary

Daily Weather History Graph

Daily Weather History Graph

Search for Another Location

Airport or City:

Trip Planner

Search our weather history database for the weather conditions in past years. The results will help you decide how hot, cold, wet, or windy it might be!

Date:

Astronomy

Aug. 03, 2013 Rise Set
Actual Time 6:12 AM EDT 8:05 PM EDT
Civil Twilight 5:43 AM EDT 8:33 PM EDT
Nautical Twilight 5:09 AM EDT 9:07 PM EDT
Astronomical Twilight 4:33 AM EDT 9:43 PM EDT
Moon 3:20 AM EDT (8/3) 5:45 PM EDT (8/3)
Length of Visible Light 14h 49m
Length of Day
13h 53m
Waning Crescent, 9% of the Moon is Illuminated
Aug 3
Waning Crescent
Aug 6
New
Aug 14
First Quarter
Aug 20
Full
Aug 28
Last Quarter

Hourly Weather History & Observations

Time (EDT) Temp. Heat Index Dew Point Humidity Pressure Visibility Wind Dir Wind Speed Gust Speed Precip Events Conditions
12:15 AM 77.9 °F - 74.8 °F 90% 30.01 in 10.0 mi SW 10.4 mph - N/A   Mostly Cloudy
12:35 AM 77.9 °F - 74.7 °F 90% 30.01 in 10.0 mi WSW 9.2 mph - N/A   Scattered Clouds
12:55 AM 78.1 °F - 74.3 °F 88% 30.01 in 10.0 mi WSW 10.4 mph - N/A   Scattered Clouds
1:15 AM 78.1 °F - 74.3 °F 88% 30.01 in 10.0 mi West 9.2 mph - N/A   Clear
1:35 AM 78.1 °F - 74.3 °F 88% 30.00 in 10.0 mi WSW 12.7 mph - N/A   Clear
1:55 AM 77.9 °F - 74.1 °F 88% 30.00 in 10.0 mi WSW 12.7 mph - N/A   Clear
2:15 AM 77.9 °F - 73.9 °F 88% 29.99 in 10.0 mi West 11.5 mph - N/A   Clear
2:35 AM 77.4 °F - 73.9 °F 89% 29.99 in 10.0 mi WSW 12.7 mph - N/A   Clear
2:55 AM 77.2 °F - 74.1 °F 90% 29.98 in 10.0 mi WSW 10.4 mph - N/A   Clear
3:15 AM 76.8 °F - 73.9 °F 91% 29.98 in 10.0 mi WSW 9.2 mph - N/A   Clear
3:35 AM 76.6 °F - 73.9 °F 91% 29.99 in 10.0 mi West 6.9 mph - N/A   Clear
3:55 AM 76.5 °F - 73.9 °F 92% 29.99 in 10.0 mi West 6.9 mph - N/A   Clear
4:15 AM 76.3 °F - 74.1 °F 93% 29.98 in 10.0 mi West 9.2 mph - N/A   Scattered Clouds
4:35 AM 76.5 °F - 74.3 °F 93% 29.99 in 10.0 mi WSW 9.2 mph - N/A   Mostly Cloudy
4:55 AM 76.5 °F - 74.3 °F 93% 30.00 in 10.0 mi WSW 9.2 mph - N/A   Overcast
5:15 AM 76.5 °F - 74.3 °F 93% 30.00 in 10.0 mi West 9.2 mph - N/A   Overcast
5:35 AM 77.0 °F - 74.3 °F 91% 30.01 in 10.0 mi WSW 11.5 mph - N/A   Overcast
5:55 AM 77.0 °F - 74.1 °F 91% 30.01 in 10.0 mi WSW 10.4 mph - N/A   Overcast
6:15 AM 77.2 °F - 74.3 °F 91% 30.01 in 10.0 mi WSW 9.2 mph - N/A   Overcast
6:35 AM 77.2 °F - 74.1 °F 90% 30.02 in 10.0 mi WSW 12.7 mph - N/A   Overcast
6:55 AM 77.2 °F - 74.3 °F 91% 30.02 in 10.0 mi WSW 10.4 mph - N/A   Overcast
7:15 AM 77.4 °F - 74.1 °F 90% 30.02 in 10.0 mi WSW 10.4 mph - N/A   Overcast
7:35 AM 77.2 °F - 74.1 °F 90% 30.02 in 10.0 mi WSW 10.4 mph - N/A   Overcast
7:55 AM 77.9 °F - 74.1 °F 88% 30.02 in 10.0 mi West 10.4 mph - N/A   Overcast
8:15 AM 77.9 °F - 73.8 °F 87% 30.02 in 10.0 mi West 11.5 mph 16.1 mph N/A   Overcast
8:35 AM 78.8 °F - 73.8 °F 84% 30.01 in 10.0 mi West 11.5 mph - N/A   Overcast
8:55 AM 79.7 °F - 74.1 °F 83% 30.01 in 10.0 mi West 10.4 mph - N/A   Mostly Cloudy
9:15 AM 80.8 °F 86.1 °F 74.5 °F 81% 30.02 in 10.0 mi West 10.4 mph - N/A   Mostly Cloudy
9:35 AM 81.5 °F 87.6 °F 74.7 °F 80% 30.02 in 10.0 mi West 10.4 mph - N/A   Mostly Cloudy
9:55 AM 82.4 °F 89.2 °F 75.0 °F 78% 30.02 in 10.0 mi West 8.1 mph - N/A   Mostly Cloudy
10:15 AM 81.7 °F 88.0 °F 74.8 °F 80% 30.02 in 10.0 mi West 9.2 mph - N/A   Mostly Cloudy
10:35 AM 82.4 °F 89.2 °F 75.0 °F 78% 30.02 in 10.0 mi West 8.1 mph - N/A   Overcast
10:55 AM 83.5 °F 91.2 °F 75.2 °F 76% 30.01 in 10.0 mi WSW 9.2 mph - N/A   Mostly Cloudy
11:15 AM 84.2 °F 92.3 °F 75.2 °F 74% 30.00 in 10.0 mi SW 6.9 mph - N/A   Overcast
11:35 AM 84.0 °F 92.2 °F 75.2 °F 75% 30.00 in 10.0 mi WSW 6.9 mph - N/A   Mostly Cloudy
11:55 AM 84.0 °F 91.5 °F 74.7 °F 73% 29.99 in 10.0 mi West 6.9 mph - N/A   Scattered Clouds
12:15 PM 83.8 °F 91.1 °F 74.5 °F 73% 29.99 in 10.0 mi WSW 8.1 mph - N/A   Scattered Clouds
12:35 PM 84.0 °F 91.9 °F 74.8 °F 74% 29.99 in 10.0 mi West 6.9 mph - N/A   Mostly Cloudy
12:55 PM 80.6 °F 84.2 °F 70.7 °F 72% 30.00 in 10.0 mi WNW 11.5 mph 20.7 mph N/A Rain Light Rain
1:15 PM 77.9 °F - 73.0 °F 85% 29.98 in 10.0 mi Calm Calm - N/A   Mostly Cloudy
1:35 PM 78.3 °F - 72.9 °F 83% 29.98 in 10.0 mi WNW 3.5 mph - N/A Rain Light Rain
1:55 PM 77.9 °F - 69.4 °F 75% 29.98 in 10.0 mi NNW 11.5 mph 20.7 mph N/A   Mostly Cloudy
2:15 PM 82.4 °F 87.0 °F 71.4 °F 69% 29.96 in 10.0 mi WNW 4.6 mph - 0.01 in   Scattered Clouds
2:35 PM 84.9 °F 89.1 °F 69.6 °F 60% 29.95 in 10.0 mi WNW 6.9 mph - 0.03 in   Scattered Clouds
2:55 PM 84.0 °F 88.1 °F 69.8 °F 62% 29.95 in 10.0 mi WSW 3.5 mph - 0.03 in Rain Light Rain
3:15 PM 84.4 °F 88.7 °F 70.2 °F 62% 29.95 in 10.0 mi South 3.5 mph - N/A   Mostly Cloudy
3:35 PM 83.8 °F 90.4 °F 73.6 °F 71% 29.93 in 10.0 mi SSE 8.1 mph - N/A   Mostly Cloudy
3:55 PM 83.5 °F 90.9 °F 74.7 °F 75% 29.92 in 10.0 mi South 5.8 mph - N/A   Scattered Clouds
4:15 PM 84.7 °F 93.2 °F 75.4 °F 73% 29.92 in 10.0 mi SSW 15.0 mph - N/A   Scattered Clouds
4:35 PM 84.2 °F 93.0 °F 75.7 °F 76% 29.92 in 10.0 mi SSW 12.7 mph - N/A   Scattered Clouds
4:55 PM 83.7 °F 91.7 °F 75.2 °F 76% 29.92 in 10.0 mi SW 18.4 mph - N/A Rain Light Rain
5:15 PM 83.3 °F 90.8 °F 74.8 °F 76% 29.93 in 10.0 mi SW 15.0 mph - N/A   Mostly Cloudy
5:35 PM 83.1 °F 91.0 °F 75.7 °F 78% 29.93 in 10.0 mi SW 12.7 mph - N/A   Mostly Cloudy
5:55 PM 82.9 °F 91.2 °F 76.1 °F 80% 29.92 in 10.0 mi SW 13.8 mph - N/A Rain Light Rain
6:15 PM 83.8 °F 92.1 °F 75.7 °F 76% 29.91 in 10.0 mi SW 15.0 mph - N/A   Mostly Cloudy
6:35 PM 83.1 °F 90.4 °F 74.8 °F 76% 29.91 in 10.0 mi SW 16.1 mph 20.7 mph N/A   Overcast
6:55 PM 82.4 °F 89.2 °F 75.0 °F 78% 29.91 in 10.0 mi SW 15.0 mph - N/A   Mostly Cloudy
7:15 PM 82.0 °F 88.1 °F 74.1 °F 77% 29.93 in 10.0 mi SW 12.7 mph - N/A   Mostly Cloudy
7:35 PM 81.5 °F 87.2 °F 74.1 °F 78% 29.92 in 10.0 mi WSW 8.1 mph - N/A   Overcast
7:55 PM 75.7 °F - 72.1 °F 89% 29.95 in 10.0 mi NE 5.8 mph - N/A   Drizzle
8:15 PM 74.3 °F - 71.8 °F 92% 29.95 in 10.0 mi NE 6.9 mph - N/A Rain Light Rain
8:35 PM 74.1 °F - 72.3 °F 94% 29.96 in 10.0 mi NNE 9.2 mph - 0.01 in   Overcast
8:55 PM 73.9 °F - 71.2 °F 91% 29.95 in 10.0 mi NE 9.2 mph - 0.01 in   Overcast
9:15 PM 73.4 °F - 71.2 °F 93% 29.96 in 10.0 mi NNE 9.2 mph - N/A   Overcast
9:35 PM 73.2 °F - 71.1 °F 93% 29.97 in 10.0 mi NNE 8.1 mph - N/A   Overcast
9:55 PM 73.0 °F - 71.4 °F 95% 29.96 in 10.0 mi NE 5.8 mph - N/A   Overcast
10:15 PM 73.4 °F - 71.8 °F 95% 29.96 in 10.0 mi NNE 3.5 mph - N/A   Scattered Clouds
10:35 PM 73.8 °F - 72.0 °F 94% 29.96 in 10.0 mi North 4.6 mph - N/A Rain Light Rain
10:55 PM 74.3 °F - 72.5 °F 94% 29.96 in 10.0 mi Calm Calm - N/A   Light Drizzle
11:15 PM 75.0 °F - 72.9 °F 93% 29.94 in 10.0 mi South 5.8 mph - N/A Rain Rain
11:35 PM 73.2 °F - 72.3 °F 97% 29.94 in 10.0 mi SSE 3.5 mph - N/A   Scattered Clouds
11:55 PM 72.5 °F - 71.6 °F 97% 29.94 in 10.0 mi SSE 3.5 mph - N/A   Clear